Long Beach, CA

12:05 PM PST on January 19, 2018 (GMT -0800)
Long Beach

Weather History for KLGB - December, 2013

Change the Weather History Date:

Thursday, December 19, 2013

  Actual Average Record
Temperature  
Mean Temperature 53 °F 56 °F  
Max Temperature 58 °F 66 °F 85 °F (1985)
Min Temperature 47 °F 45 °F 36 °F (2006)
Degree Days  
Heating Degree Days 12 9  
Month to date heating degree days 154 162  
Since 1 July heating degree days 249 311  
Cooling Degree Days 0 0  
Month to date cooling degree days 8 0  
Year to date cooling degree days 1235 1125  
Growing Degree Days 4 (Base 50)    
Moisture  
Dew Point 44 °F    
Average Humidity 66    
Maximum Humidity 77    
Minimum Humidity 55    
Precipitation  
Precipitation 0.24 in 0.06 in 2.07 in (2010)
Month to date precipitation 0.34 1.06  
Year to date precipitation 4.18 11.37  
Since 1 July precipitation 1.31  
Sea Level Pressure  
Sea Level Pressure 29.78 in    
Wind  
Wind Speed 5 mph (WSW)    
Max Wind Speed 16 mph    
Max Gust Speed 18 mph    
Visibility 9 miles    
Events Rain    
T = Trace of Precipitation, MM = Missing Value Source: NWS Daily Summary

Daily Weather History Graph

Daily Weather History Graph

Search for Another Location

Airport or City:

Trip Planner

Search our weather history database for the weather conditions in past years. The results will help you decide how hot, cold, wet, or windy it might be!

Date:

Astronomy

Dec. 19, 2013 Rise Set
Actual Time 6:52 AM PST 4:47 PM PST
Civil Twilight 6:25 AM PST 5:14 PM PST
Nautical Twilight 5:53 AM PST 5:46 PM PST
Astronomical Twilight 5:23 AM PST 6:16 PM PST
Moon 7:11 PM PST 8:19 AM PST
Length of Visible Light 10h 49m
Length of Day
9h 54m
Waning Gibbous, 95% of the Moon is Illuminated
Dec 19
Waning Gibbous
Dec 25
Last Quarter
Jan 1
New
Jan 7
First Quarter
Jan 15
Full

Hourly Weather History & Observations

Time (PST) Temp. Dew Point Humidity Pressure Visibility Wind Dir Wind Speed Gust Speed Precip Events Conditions
12:11 AM 57.2 °F 46.4 °F 67% 29.86 in 10.0 mi SW 5.8 mph - N/A   Overcast
12:32 AM 57.2 °F 46.4 °F 67% 29.86 in 10.0 mi SW 5.8 mph - N/A   Overcast
12:53 AM 57.0 °F 46.0 °F 67% 29.86 in 10.0 mi WSW 6.9 mph - N/A   Overcast
1:05 AM 57.2 °F 46.4 °F 67% 29.85 in 10.0 mi WSW 4.6 mph - N/A   Overcast
1:16 AM 57.2 °F 44.6 °F 63% 29.84 in 10.0 mi SW 3.5 mph - N/A   Overcast
1:53 AM 55.9 °F 45.0 °F 67% 29.84 in 10.0 mi Variable 3.5 mph - N/A   Overcast
2:53 AM 55.9 °F 44.1 °F 64% 29.84 in 10.0 mi SW 9.2 mph - N/A   Overcast
3:53 AM 55.9 °F 42.1 °F 60% 29.82 in 10.0 mi SSW 5.8 mph - N/A   Overcast
4:53 AM 55.0 °F 42.1 °F 62% 29.79 in 10.0 mi SE 3.5 mph - N/A   Mostly Cloudy
5:24 AM 55.4 °F 44.6 °F 67% 29.79 in 10.0 mi South 5.8 mph - N/A   Overcast
5:53 AM 55.9 °F 44.1 °F 64% 29.78 in 10.0 mi South 5.8 mph - N/A   Mostly Cloudy
6:53 AM 55.0 °F 45.0 °F 69% 29.79 in 10.0 mi ESE 3.5 mph - 0.00 in   Overcast
7:53 AM 55.9 °F 43.0 °F 62% 29.80 in 10.0 mi SW 3.5 mph - N/A   Overcast
8:53 AM 57.0 °F 43.0 °F 59% 29.81 in 10.0 mi SW 3.5 mph - N/A   Overcast
9:53 AM 57.9 °F 43.0 °F 58% 29.80 in 10.0 mi ESE 4.6 mph - N/A   Mostly Cloudy
10:29 AM 57.2 °F 44.6 °F 63% 29.80 in 3.0 mi WSW 3.5 mph - 0.00 in Rain Rain
10:49 AM 53.6 °F 46.4 °F 77% 29.79 in 6.0 mi Calm Calm - 0.07 in Rain Rain
10:53 AM 53.1 °F 46.9 °F 80% 29.79 in 6.0 mi Calm Calm - 0.08 in Rain Rain
11:23 AM 53.6 °F 48.2 °F 82% 29.77 in 6.0 mi WNW 5.8 mph - 0.04 in Rain Heavy Rain
11:44 AM 53.6 °F 48.2 °F 82% 29.76 in 6.0 mi West 5.8 mph - 0.11 in Rain Rain
11:46 AM 53.6 °F 48.2 °F 82% 29.76 in 2.0 mi West 5.8 mph - 0.12 in Rain Heavy Rain
11:53 AM 53.1 °F 46.9 °F 80% 29.75 in 1.8 mi NW 3.5 mph - 0.15 in Rain Heavy Rain
11:58 AM 53.6 °F 46.4 °F 77% 29.75 in 3.0 mi NW 3.5 mph - 0.00 in Rain Light Rain
12:53 PM 55.0 °F 45.0 °F 69% 29.73 in 8.0 mi WNW 12.7 mph 16.1 mph 0.01 in Rain Light Rain
1:07 PM 55.4 °F 44.6 °F 67% 29.73 in 10.0 mi WNW 12.7 mph - 0.00 in   Overcast
1:53 PM 57.9 °F 44.1 °F 60% 29.72 in 10.0 mi West 13.8 mph 18.4 mph 0.00 in   Overcast
2:53 PM 55.9 °F 41.0 °F 57% 29.73 in 10.0 mi NW 10.4 mph - N/A   Scattered Clouds
3:36 PM 55.4 °F 39.2 °F 54% 29.73 in 10.0 mi WNW 8.1 mph - N/A   Mostly Cloudy
3:53 PM 55.9 °F 39.0 °F 53% 29.73 in 10.0 mi NW 6.9 mph - N/A   Mostly Cloudy
4:53 PM 54.0 °F 44.1 °F 69% 29.74 in 10.0 mi ENE 4.6 mph - N/A   Mostly Cloudy
5:53 PM 53.1 °F 45.0 °F 74% 29.75 in 10.0 mi East 3.5 mph - N/A   Mostly Cloudy
6:35 PM 51.8 °F 42.8 °F 71% 29.76 in 10.0 mi Calm Calm - N/A   Scattered Clouds
6:53 PM 52.0 °F 43.0 °F 71% 29.75 in 10.0 mi Calm Calm - N/A   Scattered Clouds
6:56 PM 51.8 °F 42.8 °F 71% 29.75 in 10.0 mi Calm Calm - N/A   Scattered Clouds
7:53 PM 53.1 °F 43.0 °F 69% 29.77 in 10.0 mi NNE 3.5 mph - N/A   Mostly Cloudy
8:53 PM 52.0 °F 43.0 °F 71% 29.77 in 10.0 mi Calm Calm - N/A   Mostly Cloudy
9:53 PM 51.1 °F 43.0 °F 74% 29.78 in 10.0 mi West 3.5 mph - N/A   Partly Cloudy
10:53 PM 50.0 °F 43.0 °F 77% 29.78 in 10.0 mi Calm Calm - N/A   Clear
11:53 PM 46.9 °F 42.1 °F 83% 29.79 in 10.0 mi Calm Calm - N/A   Clear